User: anonymous   Login
Location: Unspecified
(0.0000°N, 0.0000°E)
Time: 19:36:40
(UTC+00:00)
Language:

WGS 6 (USA 244) - Orbit

View from above orbital plane
View from above orbital plane
View from above satellite
View from above satellite

Ground track
Ground track

The orbit data is extracted from the following two-line orbital elements,

1 39222U 13041A   21136.76929883  .00000097  00000-0  00000-0 0  9998
2 39222   0.0166 291.8396 0000127  70.0966  14.5334  1.00272339 27421
Epoch (UTC): 16 May 2021 18:27:47
Eccentricity: 0.0000127
inclination: 0.0166°
perigee height: 35785 km
apogee height: 35786 km
right ascension of ascending node: 291.8396°
argument of perigee: 70.0966°
revolutions per day: 1.00272339
mean anomaly at epoch: 14.5334°
orbit number at epoch: 2742

The dashed part of the orbit path shows where the satellite is in the earth's shadow,  

DLR